Temperature
18 18 18 18 17 17 17 17 17 16 16 16 16 16 16 16 16 16 15 15 15 15 15 15 15 15 15 15 15 15 15 15 15 15 15 15 15 15 15 15 15 15 15
18 18 18 18 18 17 17 17 17 16 16 16 16 16 16 15 15 15 15 15 15 15 15 15 15 15 15 15 15 15 15 15 15 15 15 15 15 15 15 15 15 15 15
18 18 18 18 18 17 17 17 17 16 16 16 16 16 16 15 15 15 15 15 15 15 15 15 15 15 15 15 15 15 15 15 15 15 15 15 14 14 14 14 14 14 14
18 18 18 18 18 18 17 17 17 16 16 16 16 16 16 15 15 15 15 15 15 15 15 15 15 15 15 15 15 15 15 15 15 15 15 15 15 14 14 14 14 14 14
18 18 18 18 18 18 17 17 17 16 16 16 16 16 16 15 15 15 15 15 15 15 15 15 15 15 15 15 15 15 15 15 15 15 15 15 14 14 14 14 14 14 14
18 18 18 18 18 18 17 17 17 17 16 16 16 16 16 15 15 15 15 15 15 15 15 15 15 15 15 15 15 15 15 15 15 15 15 15 14 14 14 14 14 14 13
18 18 18 18 18 18 17 17 17 17 16 16 16 16 16 16 15 15 15 15 15 15 15 15 15 15 15 15 15 15 15 15 15 14 14 14 14 14 14 14 14 13 13
18 18 18 18 18 18 17 17 17 17 16 16 16 16 16 16 15 15 15 15 15 15 15 15 15 15 15 15 15 15 14 14 14 14 14 14 14 14 14 14 14 13 13
18 18 18 18 18 18 18 17 17 17 16 16 16 16 16 16 15 15 15 15 15 15 15 15 15 15 14 14 14 14 14 14 14 14 14 14 14 14 14 14 14 13 13
18 18 18 18 18 18 17 17 17 17 17 16 16 16 16 16 15 15 15 15 15 15 15 15 15 14 14 14 14 14 14 14 14 14 14 14 14 14 14 13 13 13 13
18 18 18 18 18 17 17 17 17 17 17 16 16 16 16 16 15 15 15 15 15 15 15 14 14 14 14 14 14 14 14 14 14 14 14 14 14 14 13 13 13 13 13
18 18 18 18 17 17 17 17 17 17 17 16 16 16 16 16 16 15 15 15 15 15 14 14 14 14 14 14 14 14 14 14 14 14 14 14 13 13 13 13 13 13 13
18 18 18 17 17 17 17 17 17 17 17 16 16 16 16 16 16 15 15 15 15 15 14 14 14 14 14 14 14 14 14 14 14 14 13 13 13 13 13 13 13 12 12
18 18 17 17 17 17 17 17 17 17 17 16 16 16 16 16 16 15 15 15 15 15 14 14 14 14 14 13 13 13 13 13 13 13 13 13 13 13 13 13 12 12 12
17 17 17 17 17 17 17 17 17 17 16 16 16 16 16 15 15 15 15 15 15 15 14 14 14 14 13 13 13 13 13 13 13 13 13 13 13 12 12 12 12 12 12
17 17 17 18 18 17 17 17 17 16 16 16 16 16 15 15 15 15 15 15 15 14 14 14 14 14 13 13 13 13 13 13 13 13 12 12 12 12 12 12 12 11 11
18 18 18 18 18 18 17 17 17 16 16 16 16 16 15 15 15 15 15 15 15 14 14 14 14 13 13 13 13 12 12 12 12 12 12 12 12 12 12 11 11 11 11
18 18 18 18 18 18 17 17 17 16 16 16 16 16 15 15 15 15 15 15 14 14 14 14 13 13 13 13 12 12 12 12 12 12 12 12 11 11 11 11 11 11 11
19 19 19 18 18 17 17 17 17 16 16 16 16 16 15 15 15 15 15 15 14 14 14 13 13 13 13 12 12 12 12 12 12 11 11 11 11 11 11 11 11 11 10
18 18 18 18 18 17 17 17 17 16 16 16 16 16 16 15 15 15 15 14 14 14 13 13 13 13 13 12 12 12 12 12 11 11 11 11 11 11 10 10 10 10 10
18 18 18 18 17 17 17 17 16 16 16 16 16 16 15 15 15 15 14 14 14 13 13 13 13 12 12 12 12 12 11 11 11 11 11 11 10 10 10 10 10 10 9
18 18 17 17 17 17 17 16 16 16 16 15 15 15 15 15 14 14 14 14 13 13 13 13 12 12 12 12 12 11 11 11 11 11 11 10 10 10 10 10 10 9 9
17 17 17 17 17 16 16 16 16 16 15 15 15 15 15 14 14 14 14 13 13 13 13 12 12 12 12 12 11 11 11 11 10 10 10 10 10 10 10 9 9 9 9
17 17 17 17 16 16 16 16 16 16 15 15 15 14 14 14 14 14 13 13 13 13 12 12 12 12 12 11 11 11 11 10 10 10 10 10 9 9 9 9 9 8 8
17 16 16 16 16 16 16 16 15 15 15 15 15 14 14 14 14 13 13 13 13 13 13 12 12 12 12 11 11 11 10 10 10 10 9 9 9 9 9 9 8 8 8
16 16 16 16 16 16 16 15 15 15 15 14 14 14 14 14 13 13 13 13 12 12 12 12 11 11 11 11 10 10 10 10 9 9 9 9 9 9 8 8 8 8 8
Wind_Speed
3 5 6 6 6 6 6 6 6 5 5 3 3 3 2 2 3 4 5 5 5 5 6 4 4 4 4 3 3 3 5 4 3 3 4 5 5 6 6 6 6 8 9
4 5 6 6 6 7 6 6 6 6 4 3 3 2 2 2 1 3 5 6 5 5 5 4 3 3 3 4 4 3 3 3 4 3 3 3 5 5 6 5 6 6 8
9 8 8 7 7 7 7 7 6 6 5 5 4 3 4 3 3 3 3 4 5 5 5 4 4 3 3 3 3 3 4 3 4 3 3 3 1 2 4 5 6 6 6
9 9 9 9 8 8 7 7 6 6 5 6 5 5 3 2 0 0 1 3 5 5 5 5 5 4 3 3 3 3 3 3 2 3 3 2 3 2 2 4 5 6 7
10 11 11 10 8 7 6 6 6 5 5 5 6 6 4 2 1 2 3 3 4 5 5 5 5 4 3 3 4 4 4 3 2 2 2 3 3 3 3 1 3 4 4
9 9 8 7 6 6 6 6 7 5 5 6 6 6 6 5 4 2 2 2 2 3 5 5 5 4 4 4 4 4 4 4 4 3 2 2 2 1 2 2 1 2 3
9 9 9 9 9 8 8 7 8 6 6 6 6 6 6 6 5 3 2 2 1 2 2 3 4 4 4 5 5 5 4 4 4 3 2 2 2 1 2 2 1 1 3
8 10 10 10 10 10 9 9 9 7 7 6 6 5 5 4 3 3 3 2 1 1 2 3 4 5 5 5 5 4 4 4 4 4 3 3 3 2 2 2 2 2 3
9 9 9 9 9 10 10 10 10 8 7 7 6 5 5 5 4 4 3 2 2 2 4 5 5 5 6 6 5 5 4 5 5 4 4 4 3 3 2 2 2 3 1
8 8 8 9 9 9 9 9 9 9 8 7 6 5 5 5 5 4 4 3 3 3 4 4 5 5 5 6 5 5 4 6 4 3 5 4 3 3 3 3 2 2 2
8 8 7 8 8 8 9 9 9 8 7 7 6 6 5 5 4 4 4 4 3 4 4 4 5 5 5 5 5 5 5 6 5 4 5 4 3 3 3 3 3 3 2
7 7 7 7 8 9 9 9 9 9 8 8 7 6 5 5 5 4 4 4 4 4 4 5 5 4 4 4 5 5 5 5 4 4 4 4 3 4 3 3 3 3 2
6 6 7 8 8 9 9 9 9 9 8 8 7 7 6 6 5 5 5 5 5 5 5 5 5 4 4 4 4 4 4 4 3 3 3 2 3 3 3 3 3 2 3
8 8 8 8 8 9 10 9 9 9 9 8 8 7 6 6 6 5 5 5 5 5 5 4 4 4 4 4 4 4 4 4 3 3 2 2 2 2 2 3 3 3 4
7 8 9 8 8 8 9 9 9 9 9 9 8 7 6 6 6 5 5 5 4 5 4 4 4 4 3 3 4 4 4 4 4 3 3 2 3 3 3 3 2 3 3
9 9 9 9 10 10 10 9 9 9 9 10 9 8 7 7 6 6 6 5 5 4 4 4 4 4 3 5 7 6 4 4 4 3 3 3 4 5 6 5 5 4 3
9 10 10 10 10 10 10 11 10 9 9 9 8 8 8 8 7 7 6 6 5 5 5 4 4 4 3 6 7 7 5 4 3 2 2 3 4 5 3 5 6 5 4
7 8 9 9 9 8 8 9 9 10 10 9 8 8 8 8 7 7 6 5 5 5 4 4 4 4 4 6 7 8 6 4 2 2 2 2 2 2 3 3 4 3 3
7 7 7 7 8 9 9 10 10 9 9 9 9 10 10 9 9 8 7 5 5 5 4 4 4 4 3 6 7 8 4 3 2 1 2 2 1 3 4 4 3 3 3
3 4 5 5 7 8 9 11 10 10 10 10 9 9 10 10 10 9 7 5 5 5 5 4 3 4 3 5 7 7 4 3 1 1 1 1 2 2 3 3 3 1 2
3 5 6 6 7 9 10 10 10 11 10 8 8 8 9 9 9 7 6 7 6 6 4 4 2 2 3 5 6 6 4 4 2 1 0 1 1 2 2 2 2 1 0
3 5 6 5 5 8 10 10 10 8 8 9 9 8 8 8 8 8 7 7 7 7 5 4 2 1 1 3 4 6 5 5 4 2 2 1 1 2 1 1 2 2 2
4 4 5 5 5 6 9 10 8 8 9 9 8 7 7 7 8 9 8 7 6 6 5 4 3 2 1 2 4 5 5 6 3 2 3 2 2 1 1 1 2 2 1
3 4 6 6 4 4 5 6 7 9 10 10 8 7 7 7 6 6 7 7 7 6 5 5 4 3 2 2 2 2 2 3 2 1 2 2 2 2 1 2 2 1 0
3 4 6 6 5 4 4 5 8 10 10 9 8 7 7 7 6 5 5 7 7 8 7 6 6 6 5 6 7 5 4 3 3 3 2 1 1 1 1 1 1 1 1
3 4 4 4 4 5 5 5 7 10 10 8 7 6 6 5 5 5 3 1 3 5 6 7 6 5 6 6 7 6 6 6 6 4 2 1 1 2 2 2 2 2 2
Wind_Direction
191 160 162 153 145 145 148 155 148 144 129 108 100 90 68 30 28 29 39 60 71 77 82 77 64 63 73 73 74 75 62 44 31 65 42 25 32 42 34 32 34 32 34
174 165 163 160 164 162 162 163 161 155 145 128 117 113 110 75 40 16 31 41 61 73 85 81 73 68 77 67 62 72 79 43 31 81 79 33 12 14 21 24 34 30 32
188 180 176 177 175 173 173 171 168 158 146 131 111 87 66 47 33 18 11 12 47 69 78 83 83 75 79 81 66 69 90 84 37 48 109 113 121 349 1 21 28 25 31
191 183 183 184 187 184 173 164 160 156 151 144 138 135 131 123 113 351 11 17 43 60 72 79 82 79 77 82 71 69 78 102 78 47 49 89 136 115 24 2 12 24 31
194 189 188 189 187 178 168 164 155 155 154 152 147 139 132 131 99 60 56 35 30 43 60 72 80 77 74 78 75 72 72 81 99 91 75 67 58 68 111 41 351 7 10
193 189 182 176 172 166 160 158 156 155 151 149 147 146 144 138 122 103 83 45 30 28 43 65 71 73 74 76 80 80 80 80 86 84 82 99 97 88 102 113 19 0 343
184 181 177 176 173 171 167 162 159 157 152 149 150 153 152 151 151 152 141 115 63 35 30 54 67 69 76 81 85 82 75 76 83 82 77 77 82 117 121 118 104 29 344
184 187 186 181 179 176 169 165 165 161 159 157 158 153 153 151 154 154 150 142 127 103 72 74 76 79 83 85 85 80 74 74 75 71 72 69 51 68 109 135 134 74 11
186 188 186 181 178 176 175 173 168 164 166 166 158 151 150 153 155 152 139 130 122 109 87 85 82 78 81 84 84 79 71 74 68 67 67 65 43 50 55 88 126 135 90
187 185 184 181 180 178 173 170 166 169 169 164 164 160 154 156 153 142 137 131 120 101 103 92 89 85 80 82 83 80 72 75 61 65 71 60 45 50 51 65 67 97 132
189 186 182 177 171 167 168 170 167 164 164 163 159 152 154 153 146 144 147 139 126 118 114 108 100 96 90 88 90 84 80 80 66 58 70 58 51 55 47 56 61 62 87
186 178 172 165 166 168 171 173 171 169 170 164 158 157 153 147 146 149 148 138 131 121 117 113 107 105 100 97 101 99 89 89 79 64 66 53 60 56 49 59 62 61 67
174 166 164 170 174 175 175 175 174 172 166 158 155 153 152 152 152 149 144 138 132 124 115 118 120 118 114 110 108 107 101 94 87 79 80 64 73 62 55 63 66 62 63
176 173 175 179 178 179 177 176 174 169 164 160 158 158 162 159 153 146 141 139 135 132 130 129 127 123 117 117 114 108 103 95 80 72 79 77 90 104 93 78 77 80 73
182 182 183 182 178 176 176 175 172 167 165 162 163 166 157 148 141 138 137 134 132 132 132 126 118 116 123 132 126 117 110 103 83 59 51 64 76 86 94 98 108 98 85
194 191 187 183 181 180 179 175 174 170 166 168 169 160 152 147 146 144 140 132 125 121 122 129 129 127 132 136 132 123 112 106 99 81 51 50 52 62 65 77 92 101 106
196 191 191 189 188 186 182 180 176 167 165 168 165 160 156 152 154 150 143 142 139 131 129 132 128 127 134 136 132 126 117 109 103 97 79 67 57 54 60 63 63 56 60
199 197 192 189 185 180 176 168 159 162 165 166 166 163 159 157 153 149 152 148 141 139 139 140 140 134 140 138 133 125 110 102 90 85 97 98 62 65 83 82 64 44 31
199 195 189 182 172 172 167 157 158 160 163 171 173 171 166 161 159 160 159 153 144 139 140 142 143 142 149 147 142 128 116 103 79 61 80 106 96 78 87 93 82 41 9
173 165 155 148 160 168 159 157 162 166 178 181 177 170 166 165 167 167 160 152 148 146 141 134 145 151 162 158 150 139 132 124 104 45 26 68 113 102 94 104 112 86 329
141 143 143 152 165 162 158 163 167 183 184 168 160 159 162 165 163 155 152 147 142 136 136 136 140 164 183 170 162 156 149 158 154 153 313 305 136 111 103 107 143 184 157
115 132 139 145 148 158 161 168 181 179 156 151 154 158 157 158 154 147 147 146 145 143 147 146 153 201 208 179 180 176 173 165 159 187 223 232 141 113 96 94 103 85 67
132 134 137 135 138 158 168 175 176 154 146 146 152 153 152 150 151 152 153 150 151 156 166 168 179 207 227 212 194 187 181 174 170 193 186 162 126 103 71 62 66 56 68
130 132 131 137 148 161 162 166 156 153 148 150 152 151 151 148 149 154 159 160 167 171 176 181 188 198 208 211 191 175 170 170 167 159 129 100 86 80 66 33 21 22 178
124 138 149 154 160 154 147 148 150 147 147 150 151 153 153 155 156 160 172 177 187 184 183 191 186 185 206 218 193 174 183 185 181 146 93 65 44 21 352 347 336 323 329
118 126 133 144 150 147 144 145 153 151 148 149 154 156 156 157 157 154 137 156 180 190 189 185 180 198 203 191 187 190 192 185 165 134 147 201 221 237 252 267 284 279 271
Height
1536 1539 1541 1543 1545 1547 1549 1551 1552 1553 1555 1556 1557 1558 1558 1559 1560 1560 1560 1560 1560 1559 1559 1559 1558 1558 1558 1558 1558 1558 1558 1558 1559 1559 1559 1560 1560 1560 1560 1560 1560 1559 1558
1535 1537 1540 1542 1545 1547 1548 1550 1552 1553 1555 1556 1557 1558 1559 1560 1560 1561 1561 1561 1561 1560 1560 1560 1559 1559 1559 1559 1559 1559 1559 1559 1560 1560 1560 1561 1563 1562 1562 1561 1561 1560 1559
1533 1536 1538 1541 1543 1546 1548 1550 1552 1554 1555 1557 1558 1559 1560 1561 1561 1562 1562 1562 1562 1561 1561 1561 1560 1560 1560 1560 1560 1561 1561 1561 1561 1561 1562 1562 1562 1562 1563 1562 1562 1561 1561
1531 1534 1536 1539 1542 1545 1547 1550 1552 1554 1555 1557 1558 1559 1560 1561 1562 1562 1562 1562 1562 1562 1562 1562 1562 1561 1561 1561 1561 1562 1562 1562 1562 1562 1563 1563 1563 1563 1563 1564 1563 1563 1562
1528 1531 1534 1537 1541 1544 1546 1549 1551 1553 1555 1557 1558 1559 1560 1561 1562 1563 1563 1563 1563 1563 1563 1563 1563 1562 1562 1562 1562 1563 1563 1563 1563 1563 1563 1563 1563 1563 1563 1564 1564 1564 1563
1525 1529 1532 1536 1539 1542 1545 1548 1550 1553 1555 1556 1558 1559 1560 1561 1562 1563 1563 1563 1564 1564 1564 1564 1564 1564 1564 1564 1564 1564 1564 1564 1564 1564 1564 1564 1564 1564 1563 1563 1564 1564 1564
1522 1526 1529 1533 1537 1540 1543 1546 1549 1552 1554 1556 1558 1559 1560 1561 1562 1563 1564 1564 1565 1565 1565 1565 1565 1565 1565 1565 1565 1565 1565 1565 1564 1564 1564 1564 1564 1564 1564 1564 1564 1564 1564
1519 1523 1526 1530 1534 1538 1541 1544 1548 1551 1553 1556 1557 1559 1560 1561 1563 1564 1564 1565 1565 1566 1566 1566 1566 1566 1566 1566 1566 1566 1566 1565 1565 1565 1565 1565 1565 1565 1565 1565 1564 1564 1564
1517 1521 1524 1528 1532 1535 1539 1542 1546 1549 1552 1555 1557 1558 1560 1561 1563 1564 1565 1565 1566 1566 1566 1566 1566 1566 1566 1567 1567 1566 1566 1566 1566 1566 1566 1566 1566 1566 1565 1565 1565 1565 1564
1515 1518 1522 1525 1529 1533 1537 1541 1545 1548 1551 1554 1556 1558 1560 1561 1563 1564 1565 1566 1566 1567 1567 1567 1567 1567 1567 1567 1567 1567 1567 1567 1567 1567 1567 1566 1566 1566 1566 1565 1565 1565 1565
1512 1516 1519 1523 1527 1531 1535 1539 1543 1547 1550 1553 1555 1557 1559 1561 1563 1564 1565 1566 1566 1567 1567 1568 1568 1568 1568 1568 1568 1568 1568 1567 1567 1567 1567 1567 1567 1566 1566 1566 1565 1565 1564
1511 1514 1518 1521 1525 1529 1533 1537 1541 1545 1548 1551 1554 1556 1559 1561 1562 1563 1564 1565 1566 1567 1568 1568 1568 1568 1568 1568 1568 1568 1568 1568 1568 1568 1567 1567 1567 1567 1566 1566 1565 1565 1564
1509 1512 1516 1519 1522 1526 1530 1535 1539 1543 1547 1550 1553 1555 1557 1559 1561 1563 1564 1565 1566 1567 1567 1568 1568 1568 1568 1569 1569 1569 1568 1568 1568 1568 1568 1567 1567 1567 1566 1566 1565 1565 1564
1507 1510 1513 1517 1520 1524 1528 1533 1537 1541 1545 1548 1551 1553 1556 1558 1560 1562 1563 1564 1565 1566 1567 1568 1568 1568 1569 1569 1569 1569 1568 1568 1568 1568 1568 1567 1567 1567 1566 1566 1565 1565 1564
1506 1508 1511 1515 1518 1522 1526 1531 1535 1539 1542 1546 1549 1552 1555 1557 1559 1561 1562 1563 1564 1565 1566 1567 1568 1568 1568 1569 1569 1569 1568 1568 1568 1568 1567 1567 1567 1566 1566 1566 1565 1564 1564
1503 1506 1509 1513 1516 1520 1524 1528 1532 1536 1540 1543 1547 1550 1553 1555 1557 1559 1561 1562 1563 1564 1565 1566 1567 1567 1568 1568 1568 1568 1568 1568 1568 1567 1567 1567 1566 1566 1566 1565 1565 1564 1563
1500 1503 1506 1510 1513 1517 1521 1525 1529 1534 1538 1541 1544 1547 1550 1553 1556 1558 1559 1561 1562 1563 1564 1566 1566 1567 1567 1568 1568 1568 1568 1568 1567 1567 1567 1566 1566 1566 1565 1565 1564 1564 1563
1498 1501 1504 1507 1511 1515 1519 1523 1528 1532 1535 1538 1542 1545 1548 1551 1554 1556 1558 1559 1561 1562 1563 1564 1565 1566 1566 1567 1567 1567 1567 1567 1566 1566 1566 1565 1565 1565 1564 1564 1563 1563 1562
1496 1499 1502 1505 1508 1512 1516 1520 1524 1528 1532 1535 1539 1542 1546 1549 1551 1553 1555 1557 1559 1560 1562 1563 1564 1564 1565 1565 1566 1566 1566 1566 1566 1566 1565 1565 1564 1564 1563 1563 1562 1561 1561
1495 1497 1500 1503 1506 1510 1514 1517 1521 1525 1528 1532 1536 1540 1543 1546 1549 1551 1553 1555 1557 1558 1560 1561 1562 1563 1563 1564 1564 1565 1565 1565 1565 1565 1564 1564 1563 1563 1562 1562 1561 1560 1559
1493 1496 1499 1501 1504 1508 1511 1514 1518 1521 1525 1530 1534 1537 1540 1543 1546 1549 1551 1553 1555 1556 1558 1559 1560 1561 1562 1562 1563 1563 1564 1564 1564 1563 1563 1563 1562 1562 1561 1560 1560 1559 1558
1492 1495 1497 1500 1503 1506 1509 1512 1515 1520 1524 1527 1531 1534 1538 1541 1544 1546 1548 1551 1552 1554 1556 1557 1558 1559 1560 1561 1561 1562 1562 1562 1562 1562 1562 1561 1561 1560 1560 1559 1558 1557 1556
1492 1494 1497 1499 1502 1505 1508 1511 1514 1518 1522 1525 1528 1532 1535 1538 1541 1543 1546 1548 1550 1552 1553 1554 1556 1557 1558 1559 1559 1560 1560 1560 1560 1560 1560 1560 1559 1559 1558 1557 1556 1555 1554
1492 1494 1496 1498 1501 1504 1507 1510 1513 1516 1520 1523 1526 1530 1533 1535 1538 1541 1543 1545 1547 1548 1550 1552 1553 1554 1555 1556 1557 1557 1557 1557 1557 1557 1557 1557 1557 1556 1555 1555 1553 1552 1551
1492 1494 1496 1498 1501 1504 1506 1509 1512 1515 1517 1521 1524 1527 1530 1533 1535 1538 1540 1542 1544 1546 1548 1549 1550 1551 1552 1553 1554 1554 1555 1555 1555 1555 1554 1554 1554 1553 1552 1552 1551 1549 1548
1492 1493 1495 1498 1500 1503 1505 1508 1510 1513 1516 1519 1522 1525 1527 1530 1532 1535 1537 1540 1542 1544 1545 1546 1548 1548 1550 1550 1551 1551 1552 1552 1552 1552 1551 1551 1550 1550 1549 1548 1547 1546 1545